Regional Weather Roundup
Issued by NWS

Home | Current Version | Previous Version | Text Only | Print | Product List | Glossary On
Versions: 1 2 3 4 5 6 7 8 9 10 11 12 13 14 15 16 17 18 19 20 21 22 23 24 25 26 27 28 29 30 31 32 33 34 35 36 37 38 39 40 41 42 43 44 45 46 47 48 49 50
000
ASUS43 KDTX 201401
RWRMI
MICHIGAN HOURLY REGIONAL WEATHER ROUNDUP
NATIONAL WEATHER SERVICE DETROIT/PONTIAC MI
1000 AM EDT THU JUL 20 2017

NOTE: "FAIR" INDICATES FEW OR NO CLOUDS BELOW 12,000 FEET WITH NO
SIGNIFICANT WEATHER AND/OR OBSTRUCTION TO VISIBILITY.

MIZ047>049-052>055-059>063-066>070-074>076-081>083-201500-
SOUTHEAST LOWER MICHIGAN

CITY           SKY/WX    TMP DP  RH WIND       PRES   REMARKS
ADRIAN         PTSUNNY   76  66  71 NW16G26   30.05R
ALMA           CLOUDY    73  65  76 W9        29.99S
ANN ARBOR      MOSUNNY   79  69  71 SW10      30.01S
BAD AXE        CLOUDY    77  69  76 W13G18    29.95S
CARO           CLOUDY    77  67  71 W9        29.96F
DETROIT CITY   CLOUDY    80  68  66 W9G18     29.98S
DETROIT        CLOUDY    81  69  67 W13       30.00R
FLINT          CLOUDY    75  66  73 W9        29.99S
GROSSE ILE     PTSUNNY   80  70  70 NW13G20   29.99S
HILLSDALE      CLOUDY    73  64  73 W13G21    30.06S
HOWELL         CLOUDY    73  66  79 SW12G17   30.03R

CITY           SKY/WX    TMP DP  RH WIND       PRES   REMARKS
JACKSON        CLOUDY    72  65  78 VRB7      30.05R
LAMBERTVILLE   CLOUDY    76  68  77 W8        30.03R
LANSING        CLOUDY    71  65  81 SW8       30.02S
LAPEER         FAIR      77  66  69 W10G21    29.99R
MASON          CLOUDY    71  66  85 W7        30.05R
MONROE         CLOUDY    77  70  78 W14G20    30.01R
MT. CLEMENS    CLOUDY    79  72  79 SW14      29.95F
PONTIAC        CLOUDY    76  67  73 W14G20    29.99R
PORT HOPE        N/A     78  69  73 W13G20    29.91S
PORT HURON     PTSUNNY   79  72  78 W5        29.96F
TRI CITIES     PTSUNNY   77  68  73 W12       29.96F
MIDLAND        FAIR      77  64  63 W9G16     29.95F
TROY           CLOUDY    78  69  74 SW7       30.00S
SAGINAW HB     CLOUDY    77  66  69 W10       29.96S
$$
MIZ043>046-050>051-056>058-064>065-071>073-077>080-201500-
SOUTHWEST LOWER MICHIGAN

CITY           SKY/WX    TMP DP  RH WIND       PRES   REMARKS
BATTLE CREEK   CLOUDY    71  67  87 W10       30.05S
BENTON HARBOR  RAIN      70  67  90 S14       30.04F FOG
BIG RAPIDS     CLOUDY    73  64  71 W9G17     29.98F
COLDWATER      CLOUDY    72  67  84 W16       30.07R
FREMONT        FAIR      73  67  82 NW6       29.99R
HOLLAND        CLOUDY    74  65  73 VRB3      29.96F
GRAND RAPIDS   CLOUDY    70  69  97 NE10G18   29.98S
IONIA          LGT RAIN  71  66  85 CALM      29.99F
KALAMAZOO      LGT RAIN  72  65  78 SW8       30.05S
LUDINGTON      PTSUNNY   73  67  81 NW6       29.99R
MARSHALL       CLOUDY    72  70  94 W7        30.05S
MOUNT PLEASANT CLOUDY    77  64  64 W9G16     29.97R
MUSKEGON       CLOUDY    75  68  78 NW7       29.99R
SOUTH HAVEN    LGT RAIN  70  68  94 S8        29.97F
$$
MIZ016>042-201500-
NORTHERN LOWER MICHIGAN

CITY           SKY/WX    TMP DP  RH WIND       PRES   REMARKS
ALPENA         CLOUDY    70  64  81 SE7       29.93F
BEAVER ISLAND  SUNNY     71  63  76 SW13      29.93S
BELLAIRE       CLOUDY    72  64  77 W3        29.95S
CADILLAC       PTSUNNY   76  65  69 W12G22    29.98S
CHARLEVOIX     SUNNY     72  64  75 SW13G24   29.96S
FRANKFORT      SUNNY     74  69  81 W12       29.97R
GAYLORD        PTSUNNY   72  62  71 W13G22    29.96S
GRAYLING       CLOUDY    72  64  74 W10G22    29.97S
HARBOR SPRINGS PTSUNNY   72  65  78 W7        29.93F
HOUGHTON LAKE  CLOUDY    73  65  75 W21G26    29.97S
MANISTEE       CLOUDY    73  67  81 W9        29.98R
OSCODA         SUNNY     79  64  60 NW15      29.91F
PELLSTON       MOSUNNY   72  62  71 SW9       29.93S
ROGERS CITY    PTSUNNY   73  60  65 S6        29.93S
TRAVERSE CITY  PTSUNNY   75  65  70 W15G23    29.94S
$$
MIZ007>008-015-201500-
EASTERN UPPER MICHIGAN

CITY           SKY/WX    TMP DP  RH WIND       PRES   REMARKS
KINROSS        SUNNY     74  57  55 S12G20    29.92S
MACKINAC ISLAN SUNNY     70  59  69 S7        29.91F
NEWBERRY       SUNNY     71  62  72 SW8       29.91S
S. S. MARIE    SUNNY     73  61  65 SE6       29.91S
MUNISING         N/A     74  59  59 CALM      29.91R
$$
MIZ004>006-011>014-085-201500-
CENTRAL UPPER MICHIGAN

CITY           SKY/WX    TMP DP  RH WIND       PRES   REMARKS
MANISTIQUE     SUNNY     71  64  76 SW3       29.92S
ESCANABA       SUNNY     73  61  65 W10       29.93S
MENOMINEE      SUNNY     73  65  75 VRB3      29.96S
SAWYER-GWINN   SUNNY     70  59  68 W6        29.94S
$$
MIZ001>003-009>011-084-201500-
WESTERN UPPER MICHIGAN

CITY           SKY/WX    TMP DP  RH WIND       PRES   REMARKS
IRON MOUNTAIN  SUNNY     73  59  61 NW8       29.94F
HOUGHTON       SUNNY     70  55  59 W20       29.92R
COPPER HARBOR    N/A     73  56  54 N10G21    29.88R
IRONWOOD       SUNNY     71  63  75 W10       29.98R
$$

ABBREVIATIONS USED IN REMARKS
   TC - TEMPERATURE IN CELSIUS
  WCI - WIND CHILL INDEX
   HX - HEAT INDEX
  VSB - VISIBILITY




USA.gov is the U.S. government's official web portal to all federal, state and local government web resources and services.